Home > Time Zones > World Clock > Weather > U.S.A. > Gary > Past weeks

Flag for U.S.A. Weather past 2 weeks in Gary, Indiana, U.S.A.

37 °F


Feels Like: 32 °F
Forecast: 35 / 48 °F
Wind: 7 mph from Southeast

Location: Lansing Municipal Airport

Current Time: Nov 25, 2015 at 1:05:59 AM

Latest Report: Nov 25, 2015 at 12:15 AM

Visibility: 10 mi

Pressure: 30.26 "Hg

Humidity: 80%

Dew point: 32 °F

Location of GaryLocation

Historic Weather in Gary — Graph


Gary temperature yesterday

Maximum temperature yesterday: 42 °F (at 12:55 PM)
Minimum temperature yesterday: 20 °F (at 5:55 AM)
Average temperature yesterday: 32 °F

Past Weeks' High & Low Weather Summary

High64 °F (Nov 15, 1:55 PM)100% (Nov 24, 8:55 AM)30.36 "Hg (Nov 24, 8:55 AM)
Low8 °F (Nov 22, 6:35 AM)26% (Nov 20, 11:35 AM)29.31 "Hg (Nov 12, 12:55 AM)
Average41 °F72%30.02 "Hg
* Reported Nov 9 11:15 PM — Nov 24 11:35 PM, Gary, Weather by CustomWeather, © 2015

Note: Actual official high and low records may vary slightly from our data, if they occured in-between our weather recording intervals... More about our weather records


Gary weather history for previous 24 hours

Time TempWeatherWind HumidityBarometerVisibility
11:35 PM
Tue, Nov 24
38 °FClear.8 mph78%30.26 "Hg10 mi
11:15 PM38 °FClear.8 mph77%30.26 "Hg10 mi
10:55 PM38 °FClear.7 mph78%30.26 "Hg10 mi
10:15 PM38 °FClear.8 mph79%30.26 "Hg10 mi
9:15 PM37 °FClear.5 mph81%30.26 "Hg10 mi
8:55 PM36 °FClear.8 mph82%30.27 "Hg10 mi
8:35 PM36 °FClear.7 mph82%30.27 "Hg10 mi
8:15 PM36 °FClear.9 mph81%30.27 "Hg10 mi
7:55 PM36 °FClear.9 mph80%30.27 "Hg10 mi
7:35 PM36 °FClear.10 mph80%30.28 "Hg10 mi
7:15 PM36 °FClear.8 mph82%30.28 "Hg10 mi
6:35 PM35 °FClear.5 mph86%30.29 "Hg7 mi
6:15 PM35 °FClear.7 mph84%30.28 "Hg7 mi
5:55 PM35 °FClear.7 mph85%30.28 "Hg7 mi
5:15 PM36 °FClear.7 mph84%30.28 "Hg10 mi
4:55 PM36 °FClear.7 mph83%30.28 "Hg10 mi
4:15 PM38 °FClear.6 mph78%30.28 "Hg10 mi
3:55 PM38 °FClear.8 mph76%30.28 "Hg10 mi
3:35 PM40 °FClear.9 mph72%30.28 "Hg10 mi
3:15 PM40 °FSunny.6 mph72%30.28 "Hg10 mi
2:55 PM41 °FSunny.8 mph69%30.29 "Hg10 mi
2:15 PM41 °FSunny.6 mph69%30.29 "Hg10 mi
1:55 PM41 °FSunny.9 mph68%30.30 "Hg10 mi
1:35 PM41 °FSunny.9 mph68%30.30 "Hg10 mi
1:15 PM42 °FSunny.9 mph66%30.30 "Hg10 mi
12:55 PM42 °FSunny.8 mph67%30.31 "Hg10 mi
12:35 PM41 °FSunny.7 mph70%30.32 "Hg10 mi
12:15 PM41 °FSunny.7 mph70%30.32 "Hg10 mi
11:55 AM40 °FSunny.No wind75%30.32 "Hg10 mi
11:15 AM36 °FSunny.3 mph87%30.34 "Hg7 mi
10:55 AM35 °FSunny.3 mph91%30.35 "Hg7 mi
10:35 AM32 °FSunny.No wind99%30.36 "Hg7 mi
10:15 AM31 °FSunny.No wind100%30.36 "Hg7 mi
9:55 AM30 °FSunny.No wind99%30.36 "Hg7 mi
9:15 AM28 °FIce fog.No wind99%30.34 "Hg4 mi
8:55 AM28 °FIce fog.No wind100%30.34 "Hg4 mi
8:15 AM25 °FIce fog.No wind98%30.33 "Hg4 mi
7:55 AM24 °FIce fog.No wind97%30.32 "Hg3 mi
7:15 AM22 °FIce fog.No wind96%30.32 "Hg0 mi
6:55 AM21 °FIce fog.No wind95%30.31 "Hg1 mi
6:15 AM20 °FIce fog.No wind95%30.30 "Hg0 mi
5:55 AM20 °FIce fog.No wind95%30.29 "Hg0 mi
5:35 AM22 °FIce fog.No wind96%30.28 "Hg0 mi
5:15 AM22 °FIce fog.No wind96%30.28 "Hg0 mi
4:55 AM23 °FIce fog.No wind96%30.28 "Hg1 mi
4:35 AM21 °FIce fog.No wind96%30.27 "Hg1 mi
4:15 AM22 °FIce fog.3 mph97%30.27 "Hg2 mi
3:55 AM21 °FIce fog.3 mph96%30.26 "Hg1 mi
3:15 AM21 °FIce fog.3 mph96%30.25 "Hg1 mi
2:55 AM21 °FIce fog.No wind97%30.24 "Hg0 mi
2:15 AM22 °FIce fog.No wind97%30.23 "Hg0 mi
1:55 AM24 °FIce fog.No wind98%30.23 "Hg2 mi
Weather by CustomWeather, © 2015

See weather overviewHow to use our weather pages